Location: Waco, TX
(31.5480°N, 97.1670°W)
Time: 22:58:02
(UTC-06:00)

ISS - Pass Details

Date: 14 February 2019
Orbit: 403 x 411 km, 51.6° (Epoch: 22 February)

Event Time Altitude Azimuth Distance (km) Brightness Sun altitude
Rises 16:38:08 0° 326° (NW) 2,327 0.1 18.3°
Reaches altitude 10° 16:40:26 10° 340° (NNW) 1,466 -1.0 17.8°
Maximum altitude 16:43:15 25° 39° (NE) 856 -2.6 17.3°
Drops below altitude 10° 16:46:03 10° 97° (E) 1,465 -1.4 16.8°
Sets 16:48:21 0° 111° (ESE) 2,324 -0.4 16.3°
